Wind_Speed
31 31 32 33 33 34 35 35 37 38 39 40 41 42 44 45 46 46 47 47 47 48 48 48 48 47 47 47 46 45 45 44 42 42 43 43 42 41 41 41 41 41 40 39 38 38 37 36 35 34 32 31 29 29 29 29 29 27 26 26 26 25 25 25 24 23 23 24 24 21 18 17 16 15 15 14 13 13 13 14 14 14 14 13 14 14 14
30 31 32 32 33 34 35 36 37 39 40 41 42 43 44 47 48 50 50 51 51 52 52 53 53 52 52 52 51 50 49 49 47 45 45 45 45 44 43 42 42 43 42 42 41 40 39 39 38 36 35 33 32 31 31 31 30 28 27 27 26 26 26 25 25 25 25 26 26 23 20 19 19 17 17 16 16 15 15 15 15 15 15 15 15 15 14
31 32 32 33 33 34 34 35 36 38 40 41 42 43 44 46 48 50 52 53 54 55 56 57 57 57 57 57 56 55 54 53 52 50 49 48 48 48 47 45 44 44 44 44 43 42 42 41 40 39 38 36 34 33 32 32 31 30 29 27 27 27 27 27 26 26 27 28 28 24 22 22 22 20 19 18 18 17 17 17 16 15 16 16 16 16 15
32 32 33 33 33 33 34 35 36 37 39 40 42 43 44 45 46 48 50 52 54 56 58 60 61 62 62 61 60 59 59 58 57 55 54 52 53 52 51 50 49 47 46 46 45 44 44 43 42 41 40 38 36 35 34 33 32 31 30 28 27 28 28 28 27 27 27 28 27 23 22 24 24 23 21 20 20 19 19 19 18 17 18 18 17 16 16
33 33 33 33 33 34 35 36 37 38 39 40 41 43 43 44 45 46 48 49 51 53 56 59 62 64 65 65 64 64 63 62 62 60 58 57 57 56 55 54 53 51 50 49 48 47 46 45 44 43 42 41 39 37 36 35 34 33 31 29 27 28 29 29 28 27 27 26 24 22 21 23 25 24 23 22 22 21 21 21 19 19 20 20 17 16 17
34 34 34 34 35 35 36 37 38 39 40 41 42 43 44 45 45 46 48 49 50 51 53 56 59 62 65 67 67 67 66 65 65 64 63 61 60 60 59 58 57 55 54 53 52 50 49 48 46 45 44 43 42 40 38 37 36 34 32 30 28 29 29 29 28 28 27 24 23 21 20 21 23 23 22 23 23 23 23 23 22 21 22 22 19 17 18
36 35 35 35 36 36 37 38 40 41 42 43 44 44 45 46 46 48 49 50 51 52 53 54 56 59 62 65 67 68 69 69 68 67 67 65 63 63 62 61 60 59 58 58 56 54 53 51 48 47 47 45 44 43 41 39 37 36 34 31 30 30 30 30 29 29 28 26 24 23 22 21 22 21 20 21 23 25 25 25 24 23 24 24 23 21 20
37 36 36 36 37 37 38 40 41 43 45 46 46 47 47 48 48 49 51 52 53 53 54 55 56 58 60 62 63 66 68 70 70 70 70 68 67 66 64 63 63 63 62 61 59 58 57 54 52 51 50 48 47 45 43 41 39 38 36 34 33 32 31 31 31 30 30 28 26 26 25 24 23 22 20 20 21 24 26 26 26 25 25 25 25 25 23
37 36 37 37 38 39 40 41 43 45 46 48 49 50 50 50 50 51 53 54 55 55 55 56 57 58 61 61 62 64 65 68 71 72 72 71 70 68 67 66 66 66 65 63 62 61 60 58 56 55 53 52 50 48 46 44 42 41 39 37 36 34 33 34 33 31 31 30 29 28 28 27 26 24 22 22 23 23 25 26 26 27 26 25 26 27 26
36 36 37 38 39 40 42 43 45 46 48 49 51 52 53 53 53 54 55 55 55 55 55 56 56 58 60 62 63 64 64 66 68 70 72 73 72 72 71 69 68 68 67 65 64 64 63 62 60 59 57 56 54 52 50 48 46 45 42 40 39 37 36 36 35 34 33 32 32 32 30 29 27 25 25 26 25 24 23 24 27 28 26 26 27 29 28
35 36 38 39 40 42 44 45 47 48 50 51 53 54 54 55 56 57 57 57 55 54 52 53 54 55 58 59 61 63 64 65 67 67 69 71 72 73 73 73 72 70 69 68 67 67 66 65 64 63 62 60 58 56 54 52 50 48 46 44 42 40 39 38 37 37 35 34 37 36 33 31 28 28 30 29 27 26 24 23 26 27 26 27 29 30 29
35 37 39 41 42 44 46 48 49 51 53 54 55 56 56 57 59 60 60 58 56 53 51 50 50 50 53 55 57 59 62 64 65 66 67 68 69 71 72 73 74 73 72 71 71 70 69 68 66 65 65 64 61 59 58 56 54 51 49 47 45 43 42 40 40 40 37 37 41 40 35 33 32 32 34 32 28 28 26 24 24 26 27 28 29 29 30
37 39 41 43 45 46 48 50 52 54 55 57 57 58 59 59 61 61 61 59 56 53 50 48 47 46 48 50 52 55 57 60 63 65 66 66 67 68 69 70 71 72 73 73 73 73 72 70 69 68 67 67 66 63 61 59 58 55 54 52 49 47 46 44 44 43 41 41 43 41 37 36 35 36 37 34 30 29 28 25 25 26 29 31 29 27 28
40 42 44 46 48 49 51 52 54 56 58 59 59 60 60 61 63 63 62 59 56 53 50 47 45 44 45 47 49 51 53 56 59 62 64 66 66 66 67 68 69 70 71 73 73 73 73 72 71 69 69 68 68 66 65 63 61 59 58 56 54 51 50 48 47 47 45 43 43 41 38 37 37 38 39 36 33 31 29 27 27 27 30 32 31 27 28
43 45 46 48 50 51 53 54 56 59 60 61 61 62 62 63 65 65 63 59 55 51 48 46 44 43 44 45 47 48 49 52 55 58 60 63 64 65 65 67 69 70 70 70 71 72 72 71 71 70 70 69 68 68 68 67 65 63 61 59 58 55 53 51 50 49 47 46 45 43 41 39 38 38 39 38 35 33 32 29 28 29 29 32 32 29 29
45 47 49 50 52 53 55 56 59 61 62 63 63 63 64 66 67 66 63 59 54 49 46 44 43 43 43 43 44 45 45 47 49 52 54 57 60 62 62 64 67 69 69 69 70 70 70 70 70 70 70 69 69 69 69 69 68 66 64 62 60 59 57 55 53 52 50 48 48 46 44 43 40 37 39 40 37 35 34 31 30 29 29 31 32 31 30
47 49 51 52 54 55 56 59 61 63 64 64 64 65 67 68 68 66 63 58 52 46 44 42 41 41 42 41 41 42 42 43 44 46 48 50 52 55 57 60 63 66 68 69 69 70 69 69 69 69 70 70 70 69 68 68 69 69 68 66 64 62 60 59 57 56 54 52 52 50 49 47 43 40 40 41 40 39 36 33 32 31 31 32 33 34 33
49 51 53 54 55 57 59 61 63 65 66 66 66 67 69 69 68 65 62 56 49 43 42 41 39 39 40 40 39 39 39 40 41 42 43 45 47 48 50 53 57 60 63 65 67 69 70 70 69 69 70 70 69 68 68 68 68 68 68 68 67 65 63 61 60 59 58 57 56 54 52 50 48 45 43 42 42 41 39 37 36 34 34 34 35 36 37
52 53 54 56 57 60 62 63 65 65 66 67 69 71 71 71 68 65 60 53 45 41 40 40 38 37 37 37 37 37 36 37 38 39 40 41 43 44 46 47 49 52 56 59 63 67 69 70 71 71 71 70 69 68 67 67 67 67 67 68 68 66 65 64 62 61 61 61 60 58 55 52 50 48 46 44 43 43 42 42 39 38 38 37 35 37 38
54 55 56 58 60 62 64 65 66 66 67 68 71 73 73 72 69 66 58 49 42 38 38 38 37 36 36 36 35 35 35 35 36 37 37 37 39 41 42 43 44 45 48 51 56 61 64 68 71 73 72 70 68 67 67 67 67 67 66 66 66 65 65 64 63 62 62 62 62 59 55 52 51 51 49 46 45 45 45 44 43 41 41 39 36 36 38
56 56 58 60 63 64 65 66 67 67 68 70 72 74 74 72 70 65 55 45 39 37 36 35 35 35 35 35 34 33 34 34 34 35 35 35 37 38 39 41 42 42 43 46 50 54 57 62 67 71 71 71 70 69 68 68 68 67 67 66 65 64 63 62 62 63 63 63 62 59 55 53 53 53 51 49 47 47 47 47 46 44 42 39 37 36 37
57 59 61 63 65 66 66 67 67 68 70 72 74 74 73 72 69 62 51 42 37 35 34 33 33 34 34 33 33 33 33 33 34 33 33 34 35 36 37 39 41 42 42 43 45 47 51 56 61 65 68 70 72 72 71 69 69 68 67 67 65 64 62 62 62 62 61 62 62 60 57 55 54 54 53 50 48 48 48 48 47 45 43 40 38 37 36
60 61 63 65 66 66 66 67 68 70 72 74 75 74 73 71 66 56 47 40 36 34 33 32 32 33 33 32 32 33 32 32 33 32 32 32 33 35 36 38 40 42 42 42 43 44 47 51 55 59 63 66 70 72 72 71 70 68 68 67 65 64 63 62 62 61 60 61 62 60 58 55 54 54 53 51 49 48 49 49 48 46 43 41 39 37 36
62 64 65 66 66 66 67 68 70 71 74 75 75 74 73 69 61 50 42 38 35 33 32 32 32 32 33 32 32 32 32 31 32 31 31 31 32 34 36 38 39 41 41 42 42 43 45 47 50 54 58 62 66 69 71 71 71 70 69 68 66 64 63 63 62 61 61 61 61 61 59 56 55 54 53 52 50 49 49 49 48 47 44 42 40 39 37
64 66 67 67 66 67 68 69 71 73 75 76 75 74 72 66 56 45 38 36 34 32 31 32 32 32 33 32 31 31 31 30 30 30 30 30 31 33 35 37 38 40 41 41 42 42 43 45 46 50 54 58 61 66 69 70 70 69 69 68 66 65 63 62 61 60 60 61 61 61 60 58 56 55 54 52 51 50 49 49 48 48 46 43 41 40 38
66 67 67 67 67 67 69 70 72 74 75 75 74 73 69 61 50 41 37 35 33 32 31 31 32 32 33 33 32 31 30 30 30 30 29 30 31 33 35 36 38 40 41 41 42 42 43 44 44 47 51 55 58 63 66 68 68 68 68 67 66 65 63 62 60 60 60 60 60 60 60 59 56 55 53 52 51 50 50 50 50 49 47 44 42 41 40
68 68 68 67 67 68 70 72 73 75 75 75 73 71 65 55 45 39 36 34 33 32 31 31 32 32 33 33 32 31 30 30 30 30 30 31 32 33 34 35 37 39 41 42 42 43 43 44 44 45 47 50 54 58 62 65 67 67 67 67 66 65 63 62 61 60 59 59 58 58 59 58 56 54 54 54 53 52 51 51 51 49 48 46 44 43 41
69 69 68 68 69 70 71 72 74 75 75 74 72 68 60 49 42 39 36 33 32 32 32 31 32 33 33 33 32 31 30 30 30 31 31 32 33 34 35 36 37 38 40 41 42 43 43 44 43 44 45 46 49 53 57 61 64 66 67 67 67 65 63 63 63 62 60 60 59 57 56 55 55 54 54 54 54 54 53 52 51 49 47 46 45 44 42
69 69 68 69 70 71 72 73 74 75 74 72 70 64 54 45 41 38 35 33 32 32 32 32 32 33 33 33 32 31 30 30 31 32 32 33 33 34 35 35 36 37 38 39 41 42 43 43 43 43 43 44 46 50 54 58 62 64 66 67 66 65 64 64 64 63 61 61 60 57 55 54 55 55 54 55 54 54 52 51 50 49 47 46 45 44 43
69 68 69 70 71 72 73 74 74 74 73 71 67 59 49 43 41 38 35 33 33 32 32 32 32 33 34 33 31 30 30 31 31 32 32 32 32 33 33 34 35 36 37 38 39 41 42 43 43 43 42 42 44 47 52 56 59 61 64 65 65 64 64 65 65 64 62 60 59 57 57 56 55 55 56 56 55 54 52 49 48 47 46 46 45 45 45
69 69 69 71 72 73 73 74 74 73 72 68 62 53 45 42 40 38 34 33 33 32 32 32 33 34 34 33 31 30 30 31 32 32 31 31 30 29 30 31 32 34 36 37 38 39 40 42 42 43 42 42 43 45 49 53 57 60 62 63 63 63 64 65 65 64 61 59 57 57 57 57 56 56 56 56 55 54 52 49 48 47 47 47 48 48 48
69 70 71 72 73 73 74 74 74 72 70 65 57 49 43 41 40 37 34 32 32 32 32 33 34 34 34 33 31 30 30 31 31 31 29 27 26 25 25 26 27 30 32 34 36 38 39 40 42 43 43 44 45 46 48 52 56 60 61 62 62 63 63 63 63 61 58 57 56 57 57 56 56 57 57 56 55 54 51 50 49 49 49 50 49 50 51
70 71 72 73 74 74 74 73 72 70 67 62 53 45 41 40 39 36 33 32 31 31 32 33 34 34 34 32 31 30 30 31 31 28 25 23 21 20 20 20 21 24 27 30 33 35 37 39 41 43 44 46 47 47 48 51 54 56 57 58 59 60 60 60 60 59 57 55 56 56 57 56 57 57 56 55 55 54 52 51 51 50 51 51 51 51 52
72 73 73 74 74 74 74 72 71 68 64 57 48 42 40 40 38 35 33 32 31 31 32 34 34 34 33 31 30 30 30 30 29 25 21 19 18 17 16 16 17 18 21 24 28 32 35 38 40 42 44 46 47 48 49 49 48 49 51 53 55 56 57 58 58 57 56 56 56 57 57 56 56 57 56 55 55 54 53 52 51 51 52 52 52 52 53
74 74 74 75 75 74 73 71 68 65 60 53 45 40 39 39 37 35 33 31 31 31 32 33 34 34 32 30 30 29 29 29 26 23 19 17 16 15 14 14 15 16 18 20 23 26 30 34 38 41 44 46 47 48 48 47 46 47 49 52 54 56 57 58 58 58 58 58 59 59 58 56 56 57 56 55 54 54 54 54 54 53 53 53 53 54 54
75 75 75 75 75 74 71 69 66 61 56 49 42 39 39 38 36 34 32 31 30 31 32 33 34 33 31 30 29 28 28 27 23 20 17 16 15 14 13 14 15 16 17 18 20 22 25 29 33 37 40 43 46 46 46 46 46 46 47 48 50 53 56 58 60 61 62 62 61 59 58 56 56 55 55 54 53 52 53 55 55 55 54 55 55 55 54
76 76 76 76 75 72 69 66 63 58 52 45 40 38 38 37 35 33 31 30 30 31 31 32 32 31 29 29 28 27 27 24 21 18 15 14 14 13 12 13 14 15 16 17 19 20 22 25 27 31 34 38 41 43 45 45 45 45 45 46 47 49 53 56 59 61 62 62 61 58 56 55 53 52 51 50 50 50 52 54 55 54 53 55 55 54 53
78 77 77 75 73 70 66 63 59 54 48 43 40 38 38 37 34 32 30 30 30 30 31 31 31 29 28 27 27 26 25 22 18 16 14 13 13 12 11 12 13 14 15 16 17 18 19 21 23 26 28 31 35 38 42 44 44 44 44 44 45 47 49 52 54 57 58 58 56 53 51 50 50 50 49 48 49 50 52 54 55 54 54 54 53 51 49
79 78 76 74 71 68 64 60 56 51 46 43 40 38 37 36 33 30 29 29 29 29 30 30 29 27 27 26 26 25 23 19 15 14 13 13 13 12 10 11 12 12 12 13 14 14 15 17 19 21 23 26 29 32 36 40 42 43 43 43 44 44 45 46 48 49 50 49 48 47 46 45 46 47 48 47 48 49 51 53 54 53 52 51 49 47 45
79 77 74 71 68 65 61 57 53 48 45 43 41 38 36 34 31 29 28 28 28 28 29 28 27 26 25 25 24 23 20 16 13 12 11 11 12 11 10 10 10 9 10 11 11 10 10 12 14 15 17 20 22 26 30 34 38 40 41 41 41 41 41 41 41 41 40 40 39 39 39 38 39 40 40 40 41 43 44 47 48 47 46 45 44 43 42
76 74 71 67 65 62 58 54 50 47 44 42 39 36 33 31 29 27 27 27 27 27 27 26 25 24 24 23 23 21 17 13 11 10 9 10 10 10 9 8 7 7 8 9 9 7 7 8 9 10 11 13 16 19 22 26 31 35 37 38 39 39 38 38 37 37 37 36 35 35 34 32 34 36 36 36 37 38 39 40 41 41 41 41 40 40 39
73 69 66 63 61 58 54 51 47 44 40 37 34 31 29 27 26 25 25 25 25 26 26 25 24 23 23 22 21 18 14 11 10 9 8 8 9 8 7 6 4 4 6 7 6 4 3 3 4 5 6 6 9 12 15 19 24 29 33 35 37 37 36 35 35 34 33 32 32 32 33 31 32 35 37 36 36 37 37 36 37 37 37 37 37 38 39
68 65 61 59 56 53 49 44 40 36 33 30 28 26 24 24 23 23 23 24 24 24 24 23 22 22 21 21 20 16 11 10 9 9 8 8 8 8 6 4 2 2 2 3 3 1 2 5 6 6 6 6 7 9 12 14 20 27 32 33 33 33 34 33 32 29 28 27 25 26 28 30 32 35 36 35 35 36 35 34 34 35 35 36 37 38 40
63 60 56 53 50 46 40 35 31 27 25 24 22 21 20 21 21 21 21 23 23 23 23 22 21 20 20 20 18 14 10 9 10 9 8 8 8 8 6 3 2 1 2 4 4 4 7 11 12 11 10 11 10 11 12 15 21 28 32 31 28 28 30 29 27 24 22 20 16 14 18 25 31 34 34 34 33 33 33 35 36 36 35 36 38 41 43
57 54 50 47 43 37 31 25 22 21 19 18 18 18 18 19 20 20 20 21 22 22 22 21 20 19 19 18 16 12 9 10 10 9 9 9 9 8 7 6 5 5 6 7 9 11 14 16 15 13 14 16 15 14 16 19 21 24 27 26 26 26 26 24 22 21 18 16 14 13 18 25 31 33 34 34 33 32 32 34 37 37 36 38 41 43 45
51 47 44 40 35 29 23 19 17 16 15 15 16 17 17 18 19 19 20 20 21 21 21 20 19 18 18 17 15 11 10 12 12 11 11 11 10 10 9 9 9 9 9 11 14 17 18 18 18 19 19 20 19 18 19 20 21 21 23 23 24 24 23 23 23 22 19 18 21 22 21 22 28 33 34 34 36 37 36 37 39 40 42 45 46 45 44
44 41 37 33 28 22 18 15 14 13 13 14 16 17 17 18 18 19 19 20 20 20 20 19 18 18 17 15 14 11 11 13 13 12 13 13 13 12 12 12 12 12 12 14 16 18 19 20 23 24 23 22 20 18 17 16 18 20 21 21 22 23 25 25 24 22 21 23 26 25 19 17 23 30 33 33 35 38 39 40 43 46 48 50 49 47 47
38 35 31 27 23 18 15 14 13 13 14 15 16 17 17 18 18 19 20 20 20 20 19 18 17 17 16 14 12 10 12 15 15 14 14 15 16 15 15 15 15 15 15 16 17 19 20 22 23 24 24 23 22 19 15 14 17 19 19 20 23 25 25 23 22 22 23 25 26 25 19 15 19 25 29 31 33 35 37 40 43 47 50 52 52 51 52
33 30 27 24 20 16 15 14 14 14 15 16 17 18 18 18 19 19 20 20 19 19 19 18 17 17 16 13 11 10 13 16 17 16 16 18 18 18 18 18 17 18 18 18 17 19 21 22 22 23 24 25 24 21 18 16 18 20 21 23 24 25 23 23 24 25 24 24 24 23 19 15 18 22 25 28 30 32 34 36 40 43 46 49 52 54 56
29 27 25 22 18 16 16 16 15 15 16 17 19 19 19 19 20 21 21 20 19 19 18 18 17 16 15 13 10 10 14 18 18 18 18 20 21 21 21 20 20 19 20 20 19 19 21 21 21 22 23 24 24 23 21 19 20 20 20 21 22 22 22 22 23 23 25 26 25 22 18 17 21 24 24 25 27 28 28 30 33 36 39 43 47 51 55
27 25 23 21 18 18 17 17 17 17 18 19 20 20 20 21 21 21 20 19 19 19 18 17 17 16 15 13 10 10 15 19 20 19 19 21 23 23 22 22 21 21 21 21 21 21 21 21 21 21 21 22 22 22 21 21 21 19 16 17 19 20 19 18 18 20 24 27 25 21 19 21 24 26 25 25 25 26 26 26 28 31 33 37 40 43 46
24 23 21 20 19 18 18 18 18 19 20 21 22 22 22 22 21 20 20 19 19 19 18 17 16 16 15 12 10 10 14 20 22 21 20 22 24 24 24 24 23 22 22 22 23 22 21 20 20 20 20 20 20 20 19 19 19 17 15 16 18 19 18 18 19 21 24 25 25 23 22 22 24 25 26 26 25 25 25 25 26 27 28 30 33 36 37
Wind_Direction
298 297 296 295 295 295 295 295 294 293 292 290 288 287 285 283 281 279 277 274 273 271 270 268 267 266 265 264 263 262 261 260 258 258 260 261 262 261 261 261 262 262 263 262 262 262 262 262 261 260 259 258 258 260 261 262 263 264 266 267 269 270 270 271 272 274 275 276 279 282 282 283 282 282 283 284 287 291 293 295 300 303 302 299 293 285 275
298 297 296 295 296 296 296 296 296 294 293 292 289 287 285 284 282 281 279 277 274 272 270 268 267 266 264 263 262 261 261 260 259 257 258 258 259 259 259 259 259 260 260 260 260 260 260 261 260 260 259 257 257 258 259 260 261 262 262 263 265 266 267 268 270 270 271 274 277 281 285 283 280 280 281 280 280 283 285 288 292 299 303 304 304 301 290
297 296 295 295 296 296 297 297 297 297 295 294 292 289 286 284 282 281 280 278 276 274 271 269 267 266 264 263 262 261 260 259 259 257 257 257 257 257 257 257 257 257 258 258 259 258 258 258 259 258 257 256 255 255 256 257 258 259 259 259 261 263 265 266 266 268 269 271 275 281 284 281 279 280 279 279 279 278 280 283 286 292 295 296 300 303 300
295 295 294 295 296 297 298 299 300 300 299 297 296 293 290 286 283 281 280 279 277 274 272 269 267 265 264 262 261 260 260 259 258 257 256 256 256 256 256 255 255 255 256 257 257 257 257 257 257 257 256 255 254 253 254 255 256 256 256 256 257 260 263 264 265 265 267 269 274 280 281 279 278 279 278 278 278 277 276 277 281 284 284 286 292 296 299
294 293 294 295 296 298 299 301 303 303 303 302 301 298 295 292 289 286 284 282 280 277 273 270 267 265 263 261 260 259 259 258 258 257 256 254 254 255 255 255 254 254 254 255 255 255 256 256 255 255 256 255 253 252 252 252 253 254 254 254 255 257 260 262 263 264 264 267 271 275 277 277 278 278 278 277 276 274 273 273 274 276 278 280 286 289 291
292 292 293 294 296 298 300 302 304 305 306 306 305 303 301 298 295 293 291 289 286 283 278 273 268 265 263 261 259 258 257 257 257 256 255 254 253 254 254 254 254 254 253 253 253 254 254 254 254 255 255 254 254 252 250 250 250 252 252 252 253 255 257 259 260 261 262 262 265 269 272 274 276 278 277 276 274 272 271 271 270 272 275 279 282 281 282
290 291 292 294 296 299 301 303 305 306 308 308 308 307 305 303 301 298 296 294 291 287 283 278 272 267 264 261 259 257 256 256 255 255 255 254 253 253 253 253 253 252 252 252 252 252 252 253 253 253 253 253 253 252 250 249 249 250 250 250 250 251 253 255 257 258 259 259 258 262 266 270 273 278 281 280 275 271 268 268 270 272 273 277 280 278 278
287 289 292 295 297 299 301 303 305 307 308 310 310 310 308 307 305 302 300 298 295 290 285 280 275 270 266 262 260 258 256 255 254 254 253 253 253 252 252 252 252 252 251 251 251 251 251 252 251 252 252 252 252 252 251 250 249 249 249 248 248 248 250 252 253 254 256 257 256 258 263 266 270 277 284 284 278 272 268 267 271 272 271 273 277 278 278
287 289 293 296 298 300 302 304 306 308 310 311 312 312 311 309 307 305 303 301 297 292 287 281 276 271 267 264 261 259 257 255 254 253 252 252 252 252 251 251 251 251 251 250 250 250 250 250 250 250 251 251 251 252 251 250 249 248 248 248 248 248 249 250 251 251 253 255 257 257 259 264 269 275 277 276 274 274 271 268 268 270 270 271 274 275 277
288 291 295 298 300 303 304 306 307 309 311 312 313 313 312 311 310 308 305 302 298 293 287 282 277 271 268 265 263 261 259 257 256 254 253 252 251 251 250 250 249 250 250 250 250 249 249 249 249 249 250 250 250 250 251 250 250 249 248 247 248 248 249 250 251 252 252 255 256 256 257 262 266 267 266 266 271 277 277 270 266 267 268 269 270 273 276
292 294 298 301 303 305 307 308 309 310 312 313 313 314 314 313 311 310 308 305 300 295 289 283 277 273 269 266 264 262 261 260 258 257 255 253 252 250 250 249 249 249 250 250 250 249 249 248 247 248 248 249 249 250 250 250 250 250 249 248 248 249 250 251 252 253 255 256 256 256 256 258 259 257 257 262 268 274 278 275 268 265 264 264 266 271 275
296 299 302 304 306 308 309 310 311 312 313 314 314 315 315 314 313 312 310 307 303 298 293 286 280 274 270 268 265 263 262 261 260 259 257 255 254 252 250 250 249 249 248 249 249 249 249 248 247 247 246 247 248 249 249 250 250 250 250 250 249 250 251 252 253 254 256 256 256 257 257 257 254 250 252 259 265 270 275 279 274 264 257 256 262 269 274
300 302 305 307 308 310 310 311 312 313 314 315 316 316 316 315 314 313 312 310 306 301 295 289 283 277 272 269 266 264 262 260 259 259 258 256 255 253 252 250 249 248 248 247 248 248 248 248 247 247 246 245 246 247 248 249 250 250 250 251 250 251 252 253 253 255 256 256 258 261 261 258 253 249 250 256 262 265 270 276 274 264 255 253 257 264 268
302 304 306 308 310 311 312 312 313 314 315 316 317 317 317 317 316 316 314 312 308 303 297 291 285 280 276 272 269 266 264 261 259 257 257 256 255 253 252 250 249 248 247 247 247 247 247 247 247 247 246 245 245 245 246 247 248 249 250 250 251 251 252 253 253 254 255 256 259 262 262 259 254 252 253 255 257 259 264 269 270 267 261 255 255 258 262
303 305 307 309 311 312 312 313 314 315 316 316 317 318 318 319 319 317 316 313 309 303 297 291 287 283 280 277 274 270 267 264 262 259 257 255 254 253 251 250 249 248 247 246 246 246 246 246 246 246 246 246 245 244 243 244 245 247 248 248 249 249 249 250 251 252 253 254 256 258 260 260 258 256 255 253 252 255 260 263 268 271 269 260 253 254 259
305 307 308 310 311 312 313 315 315 316 316 317 318 319 320 320 320 318 316 313 309 303 296 292 289 286 283 280 277 275 271 267 264 262 260 257 255 253 251 249 249 248 247 246 245 245 245 245 245 245 245 245 244 243 243 242 243 244 245 246 247 248 248 248 249 250 250 251 252 253 254 256 257 258 257 253 250 251 255 259 264 269 270 261 252 251 256
307 309 310 311 312 313 315 316 316 317 317 318 319 320 321 321 320 318 316 313 309 302 295 292 290 287 285 282 280 278 275 271 267 264 262 260 257 255 252 250 248 248 247 245 244 244 244 244 244 244 244 244 244 243 243 242 242 242 243 244 245 246 247 247 248 249 249 249 250 250 252 253 254 255 256 254 250 249 252 256 259 262 263 258 252 250 254
310 310 311 312 313 315 316 317 317 318 318 319 320 321 322 321 320 319 316 313 307 301 296 293 290 287 285 284 282 279 277 273 270 265 262 261 259 257 254 251 249 248 247 246 244 243 242 242 242 242 242 243 243 243 242 242 242 242 242 243 243 244 245 246 247 248 248 248 249 250 250 251 251 251 252 253 251 248 248 250 254 257 257 257 256 253 253
311 312 313 314 315 316 317 317 318 318 319 320 321 322 322 322 321 319 316 312 306 300 296 294 291 288 286 285 283 281 278 274 271 267 264 261 259 258 256 253 251 248 247 246 244 242 241 240 240 240 240 241 242 242 242 242 242 242 242 242 242 242 243 244 245 247 247 248 248 248 249 250 250 248 247 249 250 249 248 249 252 253 254 257 260 257 254
312 313 314 315 316 317 318 318 318 319 320 321 322 322 322 322 321 319 316 310 304 299 296 294 292 289 287 286 285 283 281 276 272 269 266 263 259 258 257 256 254 250 248 246 244 242 240 239 238 238 239 240 240 241 240 240 240 241 241 242 242 241 241 242 243 244 246 247 248 248 248 248 247 246 245 245 247 249 249 248 249 251 254 257 260 261 257
313 314 315 316 317 318 319 319 319 320 321 322 322 322 322 322 321 319 315 309 303 300 297 293 292 290 289 288 287 285 283 279 274 270 268 264 261 258 256 256 255 252 249 246 245 243 241 239 237 237 237 237 238 238 238 238 239 239 240 240 241 241 241 241 241 242 244 246 247 247 246 244 243 244 245 244 244 245 246 246 247 249 253 256 259 261 260
314 315 316 317 318 318 319 319 319 320 321 322 322 322 322 322 321 317 313 307 303 300 297 294 292 291 290 290 289 288 285 281 276 272 268 265 262 259 255 253 253 252 250 247 245 243 241 239 237 236 234 234 235 236 236 237 237 238 238 239 239 240 240 240 240 241 242 244 246 246 245 244 243 245 246 245 243 244 245 245 246 247 251 255 258 260 259
314 315 316 317 318 319 319 319 320 321 322 322 322 323 322 322 320 315 310 306 303 301 298 295 294 293 292 292 292 290 287 282 278 274 269 265 262 260 256 253 251 251 251 249 246 243 241 239 238 235 233 232 233 234 234 235 236 237 237 238 238 238 238 238 239 239 240 242 244 245 245 244 243 244 246 245 243 243 243 243 244 246 249 253 256 257 257
314 316 317 318 318 319 319 320 320 321 322 322 322 323 323 321 318 313 307 305 304 302 298 297 297 296 295 295 294 292 288 283 279 275 271 267 263 259 257 254 252 250 250 249 248 245 242 241 238 236 233 232 232 232 232 233 234 235 236 237 237 237 237 238 238 238 238 240 242 244 244 244 243 243 245 245 243 242 242 242 243 244 247 250 253 254 255
314 316 317 317 318 319 319 320 321 321 321 322 322 323 322 320 316 310 306 304 303 301 299 299 300 300 299 298 297 293 289 285 280 276 271 268 264 260 257 255 253 250 248 247 247 246 244 242 239 236 234 231 230 231 231 230 231 232 233 235 236 236 237 237 237 237 238 238 240 242 243 243 242 242 243 244 243 241 240 240 241 243 245 249 252 251 253
314 315 316 317 318 319 320 320 321 320 321 322 322 323 322 319 314 308 306 304 302 300 299 301 302 302 302 301 298 294 290 285 281 278 273 269 265 261 258 256 253 251 249 247 245 244 243 242 240 237 235 232 230 230 231 230 229 231 232 233 234 234 235 235 235 235 236 238 239 241 242 242 242 241 241 242 242 240 239 239 240 241 244 247 249 250 251
314 315 316 317 318 319 320 320 320 320 320 322 322 322 321 317 311 307 306 304 301 299 300 302 304 304 304 302 299 295 290 286 282 279 276 272 268 264 260 257 254 252 250 247 245 243 242 242 240 238 237 234 232 231 231 230 229 229 230 231 232 232 233 234 233 233 233 235 237 239 240 241 242 241 239 239 240 240 239 238 238 240 243 246 248 249 250
314 315 316 317 318 319 320 320 319 319 320 321 322 321 319 314 310 308 306 303 300 300 301 303 305 306 305 303 300 295 292 288 285 282 279 275 272 268 263 259 256 253 250 248 245 243 242 241 241 239 238 235 232 230 230 230 229 228 228 229 230 230 231 232 232 231 231 232 234 236 238 238 239 240 239 239 240 241 239 239 239 240 241 244 246 248 250
314 315 316 317 317 318 319 319 318 319 320 321 321 320 316 312 309 308 305 302 299 300 302 304 306 307 307 304 301 297 293 290 288 285 282 279 274 270 265 261 257 254 251 249 246 244 242 241 240 239 238 236 233 230 228 228 228 227 228 228 228 228 229 230 232 232 231 231 233 235 236 236 237 238 238 239 241 242 241 240 239 240 240 242 245 248 249
313 314 315 316 317 318 318 318 318 318 319 320 320 318 314 310 309 308 305 301 299 299 302 305 307 308 308 306 302 299 296 294 291 289 287 282 277 271 266 261 257 254 251 248 246 243 242 241 239 238 238 237 235 232 229 228 227 227 227 227 228 228 228 229 231 232 232 232 233 233 234 235 236 237 237 238 240 242 242 241 240 240 241 243 246 248 250
313 314 315 316 317 317 317 317 317 317 319 319 318 315 311 310 309 307 304 300 298 300 303 306 307 309 309 307 304 301 299 297 296 294 291 286 280 274 268 262 257 254 251 248 245 243 241 240 239 237 236 236 235 232 230 229 227 226 226 226 226 227 228 229 231 233 233 232 232 232 233 233 233 235 236 237 239 240 241 241 240 240 241 244 246 248 249
312 314 315 315 316 316 316 315 316 316 317 318 316 312 309 309 309 307 303 299 298 301 304 306 308 310 310 308 305 304 302 301 300 299 295 290 284 278 272 265 260 254 251 248 245 243 240 239 237 236 234 233 233 232 230 228 227 226 226 225 226 226 227 229 232 234 234 233 232 232 232 232 232 232 233 234 236 237 238 238 238 240 241 243 245 246 247
312 313 314 314 315 315 314 314 314 315 316 316 313 309 308 309 309 307 302 299 299 302 305 307 309 311 310 309 307 307 306 305 304 302 297 291 287 284 279 273 266 259 253 248 245 243 240 238 236 235 233 232 232 231 230 229 228 227 227 227 227 227 228 229 232 233 234 233 233 232 231 230 230 230 230 231 232 233 234 235 237 239 242 243 244 245 246
312 313 313 313 314 313 313 313 313 313 314 313 310 307 307 309 308 306 301 298 299 302 304 307 310 311 311 310 309 309 309 308 306 303 297 291 289 288 287 285 278 270 260 252 247 244 241 238 236 235 234 233 232 231 231 231 230 230 229 228 227 227 228 229 230 232 233 232 232 232 231 229 229 229 229 229 229 229 231 233 235 238 242 244 244 245 246
311 312 312 312 312 312 311 311 311 312 312 310 306 304 306 308 307 304 300 298 299 302 305 308 310 311 311 311 310 310 310 310 307 302 296 293 291 291 292 291 286 277 268 260 254 249 245 241 238 235 234 234 233 232 232 231 229 228 227 227 225 225 226 227 228 229 230 230 230 231 231 229 228 228 228 228 229 229 230 232 233 236 239 242 244 246 248
311 311 311 311 311 310 310 309 309 309 309 306 303 302 305 306 306 302 299 296 298 301 305 308 310 311 311 311 311 311 312 310 306 299 295 294 295 295 295 291 283 276 271 266 261 256 251 247 243 240 237 236 235 234 233 232 229 227 226 226 224 223 224 225 226 227 228 229 230 230 231 231 230 230 230 230 231 231 232 234 235 236 238 240 243 246 250
310 310 310 309 309 308 307 307 307 306 305 302 299 300 303 304 303 300 297 295 297 301 305 309 310 310 311 311 312 313 312 309 303 296 293 294 295 296 293 286 280 276 273 270 267 263 258 252 248 244 241 238 236 235 233 232 230 227 225 224 224 223 223 224 225 226 228 229 230 231 232 233 233 234 234 234 235 235 236 237 238 239 240 242 245 247 250
309 309 308 308 307 306 305 305 304 303 300 297 296 297 300 302 300 297 294 293 296 301 306 308 309 310 311 312 313 313 313 308 300 294 293 294 296 294 289 281 277 275 275 274 273 269 264 258 251 246 242 238 236 233 231 230 229 227 224 222 222 221 222 223 224 226 228 230 232 233 234 236 237 237 237 237 238 238 239 240 241 242 243 244 245 246 246
307 307 306 306 305 304 303 302 301 298 295 293 293 294 296 298 297 293 291 292 296 301 306 308 309 310 311 312 314 314 312 305 294 290 292 294 294 293 288 281 278 279 282 284 282 276 268 259 252 246 241 238 234 231 229 228 226 224 222 221 220 221 221 222 224 226 228 230 232 233 234 236 238 239 239 239 240 241 240 240 241 241 242 242 241 240 238
306 305 305 304 303 303 301 300 297 294 291 289 289 290 292 293 292 288 288 291 296 301 305 308 308 309 311 313 314 314 310 299 286 285 289 288 288 289 285 279 280 289 299 299 294 286 274 262 251 244 240 238 235 231 228 227 224 221 219 218 218 220 221 222 223 225 227 228 229 229 230 233 236 236 234 235 236 238 238 238 238 238 237 236 235 232 229
304 304 303 303 302 301 299 297 294 290 287 285 284 285 287 288 286 285 287 291 296 300 305 307 308 309 311 313 314 313 306 289 276 278 281 279 279 281 279 279 286 300 306 303 298 290 277 261 248 238 233 233 230 226 224 224 220 216 213 213 214 217 219 220 222 223 223 223 223 221 221 225 230 229 226 226 229 232 234 234 233 232 231 229 226 223 221
303 303 303 303 301 299 297 294 291 287 283 279 278 279 281 281 281 282 286 290 295 300 305 307 307 308 311 313 313 311 299 276 263 266 267 265 268 269 269 275 290 300 304 305 304 294 268 244 223 208 203 209 213 212 213 213 210 206 204 204 208 213 215 217 219 220 220 220 221 219 217 220 225 225 224 225 228 230 231 230 227 224 221 220 219 217 216
303 304 303 303 301 300 297 293 288 282 276 273 272 273 274 275 277 281 285 290 295 301 304 305 305 308 311 312 312 307 288 259 249 252 250 245 247 249 250 254 270 283 307 342 353 8 136 139 139 139 137 143 162 175 182 187 192 192 192 194 200 208 212 214 215 217 218 219 220 221 222 225 227 227 225 225 226 227 225 221 217 216 215 215 216 217 216
303 304 304 304 303 301 297 290 283 275 269 266 267 267 268 271 275 280 284 290 296 300 303 303 304 308 311 313 312 303 275 243 237 241 237 230 230 230 222 208 191 175 113 77 72 101 119 119 116 115 121 128 137 150 158 166 177 184 186 188 191 198 204 207 209 211 211 208 208 220 233 235 233 229 226 223 223 223 221 215 211 211 213 215 218 218 218
303 304 306 307 305 301 294 284 274 266 262 261 262 263 265 270 275 279 285 290 295 299 301 301 303 307 311 313 310 295 258 228 226 228 222 219 220 214 196 176 163 153 135 120 119 121 120 116 114 119 127 131 133 140 151 159 169 179 183 183 183 188 194 197 195 190 183 175 177 204 235 243 238 231 225 221 218 217 217 215 213 211 210 214 219 220 219
303 306 308 308 304 297 286 274 265 260 257 257 259 262 266 270 275 280 286 291 294 297 299 300 302 306 310 311 306 285 242 218 217 216 208 205 208 201 185 171 162 156 152 146 140 135 131 128 130 132 134 133 133 140 149 157 164 172 176 176 177 180 180 176 170 167 166 173 186 199 218 236 236 230 225 220 216 213 212 212 210 208 207 211 216 219 219
303 306 307 304 297 288 277 266 260 257 256 256 259 264 268 272 276 282 287 289 292 295 297 297 299 304 308 308 302 277 235 213 211 209 201 196 198 193 183 172 165 163 163 161 154 146 141 140 140 139 137 136 136 138 146 158 166 168 169 171 171 170 166 164 165 170 181 195 201 202 208 229 236 229 224 222 220 216 214 212 209 207 208 211 214 216 217
302 304 302 297 289 281 271 263 258 257 257 259 262 266 270 274 279 284 287 288 290 293 295 294 296 301 306 306 297 268 229 210 207 205 197 191 191 190 183 176 173 170 168 167 164 157 150 148 147 145 142 141 139 137 144 161 167 163 162 167 168 165 164 170 180 188 194 200 202 199 200 220 237 233 225 221 220 218 216 215 212 211 212 215 216 216 217
298 297 293 288 282 275 268 262 260 260 261 264 267 269 272 276 281 285 286 286 288 291 291 290 292 298 303 303 291 258 225 210 206 203 196 190 190 190 186 181 179 177 172 169 167 162 156 153 154 152 149 148 146 144 149 164 173 171 172 177 177 174 176 186 195 199 199 198 196 190 189 209 235 237 227 220 218 216 215 214 214 213 214 217 218 218 217
292 289 285 281 276 271 266 264 264 264 266 269 271 273 276 279 282 284 284 284 285 287 287 286 289 295 300 301 288 251 220 209 206 204 197 190 191 193 190 185 183 182 177 170 164 160 156 156 158 157 155 154 153 152 157 168 178 182 187 191 189 186 188 194 198 198 194 191 189 186 189 210 229 232 225 219 216 215 214 214 215 215 216 217 219 220 220
285 282 278 275 271 268 266 267 269 270 271 273 275 276 278 280 281 281 281 280 282 284 283 282 285 292 297 299 286 249 218 207 205 205 200 194 193 195 194 188 186 186 182 174 166 162 161 161 161 160 157 157 158 160 164 171 176 180 185 188 187 187 188 189 186 182 181 182 184 188 197 212 223 225 222 218 217 217 218 219 219 218 218 218 219 220 221
278 276 273 270 269 268 269 271 273 274 275 276 277 278 279 279 279 277 276 276 279 281 280 278 281 288 294 296 286 250 219 207 203 203 202 198 196 196 196 192 189 189 188 182 175 169 168 168 168 165 162 163 166 168 170 174 177 180 183 185 186 187 187 182 175 173 178 184 190 197 206 215 218 218 216 216 217 218 219 219 217 215 214 214 213 214 215
Height
10850 10849 10847 10846 10845 10844 10842 10842 10840 10839 10838 10838 10837 10836 10834 10832 10831 10831 10830 10830 10829 10828 10828 10826 10826 10827 10826 10826 10827 10827 10826 10827 10828 10828 10827 10827 10828 10829 10829 10830 10830 10830 10831 10832 10833 10834 10835 10836 10837 10838 10839 10840 10842 10842 10842 10842 10843 10843 10844 10844 10845 10845 10845 10846 10846 10847 10847 10846 10846 10847 10848 10848 10848 10847 10847 10847 10847 10847 10846 10845 10845 10845 10845 10845 10846 10846 10847
10846 10844 10843 10841 10840 10839 10838 10837 10835 10833 10832 10831 10830 10830 10828 10826 10824 10823 10822 10821 10821 10820 10819 10818 10818 10819 10818 10818 10818 10819 10819 10819 10821 10822 10821 10821 10821 10821 10822 10823 10824 10824 10824 10825 10826 10828 10829 10830 10831 10832 10834 10835 10836 10837 10837 10838 10838 10839 10840 10840 10841 10841 10841 10842 10843 10843 10843 10842 10842 10844 10845 10846 10845 10845 10845 10845 10845 10845 10844 10844 10843 10843 10843 10843 10843 10843 10844
10842 10840 10838 10837 10835 10834 10833 10832 10830 10828 10826 10824 10823 10822 10822 10820 10818 10815 10814 10812 10811 10811 10810 10809 10809 10809 10808 10808 10810 10810 10810 10811 10812 10814 10814 10814 10813 10813 10815 10816 10817 10817 10818 10818 10820 10821 10822 10823 10825 10826 10827 10829 10831 10832 10832 10833 10834 10835 10835 10836 10837 10837 10837 10838 10839 10839 10839 10839 10839 10840 10842 10842 10842 10842 10843 10843 10843 10842 10842 10841 10841 10841 10841 10841 10841 10841 10842
10837 10836 10834 10832 10831 10829 10828 10826 10825 10823 10821 10818 10816 10814 10813 10812 10811 10808 10806 10804 10802 10801 10800 10799 10799 10798 10797 10798 10800 10800 10800 10801 10802 10804 10806 10807 10806 10805 10807 10808 10809 10810 10811 10811 10813 10814 10815 10817 10818 10819 10820 10823 10825 10826 10827 10828 10829 10830 10830 10832 10833 10833 10833 10833 10834 10835 10835 10835 10835 10837 10838 10838 10838 10839 10839 10840 10840 10840 10839 10839 10839 10839 10838 10838 10839 10839 10840
10833 10831 10829 10827 10826 10824 10823 10821 10819 10817 10815 10812 10810 10807 10805 10804 10802 10801 10798 10796 10794 10791 10789 10788 10788 10787 10786 10787 10788 10788 10789 10791 10791 10793 10796 10798 10797 10797 10798 10799 10801 10802 10803 10804 10805 10807 10808 10809 10811 10813 10814 10816 10818 10820 10821 10823 10823 10824 10826 10827 10828 10828 10828 10829 10830 10830 10831 10831 10832 10833 10834 10834 10834 10835 10836 10836 10837 10837 10837 10836 10836 10836 10835 10836 10837 10837 10837
10828 10826 10824 10822 10820 10819 10817 10815 10813 10811 10809 10806 10804 10801 10798 10795 10794 10791 10789 10787 10785 10782 10779 10777 10777 10776 10775 10776 10776 10776 10778 10779 10780 10782 10784 10786 10788 10788 10789 10790 10792 10794 10795 10795 10797 10799 10800 10801 10804 10806 10807 10809 10811 10813 10815 10817 10818 10819 10821 10822 10824 10824 10824 10824 10825 10825 10826 10827 10828 10829 10830 10830 10830 10831 10832 10833 10833 10833 10834 10834 10833 10833 10833 10833 10834 10835 10834
10822 10820 10818 10816 10815 10813 10812 10810 10807 10804 10802 10799 10797 10794 10791 10788 10785 10782 10780 10778 10775 10773 10770 10767 10765 10764 10763 10763 10764 10764 10765 10767 10768 10770 10771 10775 10778 10779 10780 10782 10783 10785 10786 10786 10789 10791 10792 10794 10797 10798 10799 10802 10804 10805 10808 10811 10813 10814 10815 10817 10819 10819 10819 10820 10820 10821 10821 10823 10824 10825 10825 10826 10827 10827 10828 10829 10829 10829 10830 10830 10830 10830 10830 10830 10830 10831 10831
10816 10815 10813 10811 10809 10807 10806 10803 10801 10798 10795 10792 10789 10786 10783 10780 10777 10774 10770 10767 10765 10762 10759 10756 10754 10753 10751 10751 10752 10752 10753 10754 10755 10757 10759 10762 10766 10768 10771 10772 10773 10774 10776 10778 10781 10783 10784 10786 10789 10790 10791 10794 10796 10798 10801 10805 10806 10807 10809 10812 10813 10814 10815 10815 10815 10816 10817 10818 10820 10821 10821 10822 10823 10823 10824 10824 10825 10825 10826 10826 10827 10827 10827 10827 10826 10826 10827
10810 10809 10807 10805 10803 10801 10799 10797 10794 10791 10788 10785 10781 10778 10775 10772 10769 10765 10762 10758 10754 10750 10747 10745 10743 10742 10739 10739 10740 10740 10741 10742 10742 10744 10747 10750 10754 10756 10759 10762 10763 10763 10765 10769 10772 10774 10775 10778 10781 10782 10784 10786 10788 10790 10793 10797 10799 10800 10803 10806 10807 10809 10810 10810 10810 10812 10813 10813 10814 10816 10817 10818 10819 10820 10820 10819 10820 10821 10822 10823 10823 10823 10823 10824 10823 10822 10823
10804 10803 10801 10799 10797 10794 10792 10790 10787 10784 10781 10777 10774 10770 10766 10762 10759 10756 10752 10749 10744 10740 10736 10732 10731 10730 10728 10728 10728 10728 10729 10729 10729 10731 10735 10738 10741 10743 10745 10749 10752 10752 10755 10759 10762 10764 10766 10769 10772 10774 10776 10778 10780 10783 10785 10789 10791 10793 10797 10799 10801 10803 10804 10805 10806 10807 10808 10809 10809 10810 10812 10814 10816 10816 10815 10814 10815 10816 10818 10819 10819 10820 10820 10820 10819 10818 10820
10798 10797 10794 10792 10790 10788 10785 10782 10779 10776 10773 10770 10766 10762 10758 10753 10749 10745 10742 10738 10734 10730 10725 10721 10718 10718 10717 10716 10717 10717 10717 10717 10718 10720 10723 10725 10728 10731 10733 10736 10740 10743 10746 10749 10751 10753 10756 10759 10763 10766 10768 10770 10773 10775 10778 10781 10783 10786 10789 10792 10794 10797 10798 10800 10801 10801 10803 10804 10803 10804 10807 10810 10812 10812 10809 10810 10812 10812 10814 10815 10815 10816 10817 10816 10814 10815 10816
10792 10791 10788 10786 10784 10781 10778 10775 10771 10768 10765 10762 10758 10754 10749 10744 10740 10735 10731 10727 10723 10719 10715 10710 10708 10707 10706 10705 10705 10705 10706 10706 10706 10707 10710 10712 10715 10718 10722 10724 10728 10732 10736 10737 10739 10742 10745 10749 10753 10757 10759 10762 10764 10767 10769 10772 10775 10778 10781 10784 10787 10790 10791 10794 10795 10795 10798 10799 10796 10797 10802 10805 10807 10806 10804 10805 10808 10808 10809 10810 10811 10812 10813 10812 10811 10812 10812
10787 10784 10782 10780 10777 10774 10771 10767 10764 10760 10757 10753 10749 10745 10740 10735 10730 10725 10720 10716 10712 10707 10704 10700 10698 10696 10695 10695 10694 10694 10695 10695 10695 10695 10697 10699 10702 10706 10709 10713 10716 10720 10723 10725 10727 10730 10734 10738 10742 10746 10750 10752 10755 10758 10761 10764 10767 10771 10773 10776 10780 10783 10785 10787 10789 10789 10792 10793 10791 10793 10797 10799 10800 10800 10799 10801 10803 10804 10805 10806 10806 10807 10808 10808 10808 10809 10809
10780 10778 10776 10773 10770 10767 10764 10760 10756 10752 10748 10744 10740 10736 10732 10726 10721 10715 10710 10706 10701 10696 10693 10690 10689 10687 10686 10685 10684 10684 10684 10683 10684 10684 10684 10686 10689 10693 10697 10700 10703 10706 10710 10713 10716 10720 10723 10727 10732 10736 10739 10742 10746 10750 10753 10756 10759 10762 10765 10768 10771 10774 10777 10780 10782 10783 10785 10787 10787 10788 10791 10792 10793 10794 10795 10797 10798 10799 10800 10802 10802 10802 10803 10804 10804 10805 10805
10774 10772 10769 10766 10763 10760 10756 10752 10748 10744 10739 10735 10731 10727 10723 10717 10711 10706 10700 10696 10691 10687 10682 10680 10679 10678 10676 10675 10674 10674 10674 10672 10672 10672 10673 10674 10677 10681 10686 10688 10690 10693 10698 10702 10705 10709 10712 10717 10721 10724 10728 10732 10737 10740 10742 10746 10749 10752 10756 10759 10762 10765 10769 10772 10774 10776 10778 10780 10781 10783 10785 10785 10787 10789 10790 10792 10793 10794 10795 10797 10797 10798 10798 10799 10800 10801 10801
10768 10765 10762 10759 10756 10752 10749 10745 10740 10735 10731 10727 10722 10718 10713 10708 10702 10696 10691 10687 10682 10678 10673 10671 10670 10669 10668 10666 10664 10664 10663 10663 10662 10662 10663 10664 10665 10668 10674 10677 10678 10680 10685 10690 10694 10698 10702 10707 10711 10714 10717 10721 10724 10727 10731 10736 10740 10743 10747 10750 10753 10756 10760 10764 10766 10768 10771 10773 10774 10777 10778 10778 10782 10785 10785 10786 10788 10789 10790 10792 10793 10794 10794 10795 10795 10796 10795
10761 10758 10755 10752 10749 10745 10742 10737 10732 10727 10721 10717 10713 10709 10704 10699 10693 10688 10682 10678 10674 10669 10665 10663 10662 10660 10659 10658 10656 10655 10654 10654 10654 10653 10654 10655 10655 10657 10662 10665 10666 10668 10672 10678 10683 10687 10692 10696 10700 10704 10706 10708 10712 10717 10723 10727 10730 10734 10737 10740 10744 10748 10751 10755 10757 10760 10763 10765 10767 10770 10772 10772 10776 10779 10779 10780 10782 10783 10785 10787 10788 10789 10789 10789 10790 10791 10791
10754 10751 10748 10745 10741 10738 10734 10730 10725 10719 10713 10707 10703 10699 10695 10690 10684 10679 10674 10669 10665 10661 10658 10656 10655 10653 10651 10649 10649 10648 10647 10646 10645 10645 10646 10646 10647 10648 10650 10653 10655 10658 10661 10665 10671 10676 10680 10685 10690 10693 10695 10697 10702 10708 10713 10717 10720 10723 10727 10731 10734 10739 10742 10745 10749 10751 10754 10757 10759 10762 10764 10766 10769 10772 10773 10774 10776 10778 10780 10781 10782 10784 10784 10784 10785 10786 10786
10748 10745 10741 10738 10734 10730 10726 10722 10717 10712 10706 10699 10694 10689 10685 10680 10675 10670 10665 10661 10657 10654 10651 10648 10647 10646 10644 10643 10642 10641 10640 10639 10637 10637 10638 10639 10639 10640 10641 10643 10646 10649 10651 10654 10658 10662 10668 10674 10678 10681 10684 10688 10693 10699 10703 10707 10709 10713 10717 10721 10725 10730 10733 10736 10740 10742 10744 10747 10750 10754 10757 10761 10763 10764 10766 10768 10770 10772 10774 10775 10777 10778 10778 10779 10780 10780 10780
10741 10738 10734 10731 10727 10723 10718 10714 10709 10704 10699 10693 10687 10681 10675 10671 10666 10661 10657 10653 10650 10648 10645 10642 10641 10639 10637 10636 10635 10634 10633 10631 10630 10630 10630 10632 10632 10632 10633 10635 10637 10639 10642 10644 10646 10650 10656 10662 10666 10669 10674 10680 10685 10689 10693 10697 10699 10703 10707 10711 10715 10721 10724 10728 10732 10734 10734 10737 10741 10746 10752 10755 10755 10755 10759 10763 10764 10766 10768 10769 10771 10772 10772 10774 10775 10774 10775
10734 10730 10727 10723 10719 10715 10711 10706 10701 10696 10691 10686 10680 10674 10667 10662 10657 10652 10649 10646 10643 10641 10639 10637 10635 10633 10631 10630 10629 10628 10626 10624 10623 10623 10624 10624 10625 10625 10627 10628 10628 10630 10633 10635 10636 10640 10645 10649 10653 10658 10665 10671 10674 10678 10682 10686 10689 10693 10698 10701 10705 10711 10716 10720 10723 10725 10726 10729 10733 10738 10744 10746 10745 10746 10751 10757 10758 10759 10760 10762 10764 10766 10767 10768 10769 10769 10770
10727 10724 10720 10716 10712 10707 10703 10698 10693 10688 10683 10678 10673 10667 10660 10654 10648 10643 10640 10638 10637 10635 10633 10631 10629 10627 10626 10624 10623 10621 10620 10618 10617 10617 10617 10618 10618 10618 10620 10620 10620 10621 10624 10626 10628 10632 10635 10637 10641 10647 10654 10659 10662 10666 10671 10675 10679 10684 10688 10691 10696 10702 10707 10710 10713 10716 10718 10721 10724 10729 10734 10737 10738 10740 10744 10749 10752 10753 10754 10756 10758 10760 10761 10762 10763 10764 10765
10720 10717 10713 10709 10704 10700 10696 10691 10686 10681 10675 10670 10664 10659 10653 10647 10641 10636 10633 10631 10630 10629 10627 10626 10624 10621 10620 10619 10617 10615 10613 10612 10610 10611 10612 10612 10612 10612 10612 10613 10613 10614 10616 10618 10620 10624 10626 10628 10632 10637 10642 10647 10651 10655 10661 10666 10670 10675 10678 10682 10688 10693 10697 10700 10704 10708 10711 10713 10716 10720 10726 10730 10732 10733 10736 10741 10744 10746 10748 10750 10752 10754 10756 10757 10757 10758 10759
10713 10710 10706 10702 10697 10693 10688 10683 10678 10673 10668 10662 10657 10651 10646 10640 10635 10630 10627 10625 10624 10623 10621 10620 10618 10616 10614 10613 10612 10609 10607 10606 10605 10605 10605 10606 10606 10605 10605 10605 10606 10607 10609 10610 10613 10615 10617 10620 10623 10627 10631 10637 10641 10645 10650 10655 10660 10664 10668 10673 10679 10684 10687 10692 10696 10700 10703 10706 10708 10712 10717 10722 10724 10726 10729 10733 10736 10739 10741 10743 10746 10748 10750 10751 10752 10753 10754
10706 10703 10699 10695 10691 10686 10681 10676 10671 10666 10661 10655 10650 10644 10638 10633 10628 10625 10622 10620 10619 10618 10616 10614 10613 10610 10608 10607 10606 10604 10602 10600 10599 10599 10599 10600 10599 10599 10598 10599 10599 10600 10602 10603 10605 10607 10609 10612 10615 10618 10621 10626 10630 10634 10638 10644 10649 10654 10659 10664 10670 10674 10679 10683 10688 10692 10695 10698 10701 10704 10708 10713 10717 10719 10722 10725 10729 10732 10734 10737 10739 10742 10743 10745 10746 10747 10748
10700 10696 10692 10688 10684 10679 10674 10669 10664 10659 10654 10649 10643 10638 10632 10626 10622 10619 10617 10615 10614 10612 10611 10609 10607 10605 10603 10601 10600 10598 10596 10595 10594 10593 10593 10593 10593 10592 10592 10592 10592 10593 10594 10596 10598 10600 10601 10603 10606 10609 10612 10615 10620 10624 10628 10634 10640 10645 10650 10656 10660 10665 10670 10674 10679 10684 10687 10690 10694 10697 10700 10705 10709 10713 10716 10718 10721 10724 10727 10730 10733 10735 10737 10739 10741 10741 10743
10692 10688 10684 10680 10676 10672 10667 10662 10657 10652 10647 10642 10637 10631 10625 10621 10617 10615 10613 10611 10609 10607 10606 10605 10602 10600 10598 10596 10594 10592 10591 10589 10588 10588 10587 10587 10586 10585 10585 10586 10585 10586 10587 10589 10590 10592 10594 10595 10598 10601 10604 10608 10613 10617 10620 10626 10631 10636 10642 10646 10651 10656 10661 10665 10670 10675 10678 10682 10686 10689 10692 10697 10701 10705 10708 10710 10713 10716 10720 10723 10726 10729 10731 10733 10735 10736 10737
10685 10681 10677 10673 10669 10665 10660 10655 10650 10645 10640 10635 10630 10625 10620 10615 10612 10610 10608 10606 10604 10602 10601 10600 10598 10595 10593 10591 10589 10587 10585 10584 10583 10582 10581 10580 10579 10579 10579 10579 10579 10579 10580 10581 10583 10585 10587 10589 10591 10594 10597 10600 10605 10609 10612 10617 10622 10626 10631 10635 10640 10647 10652 10655 10659 10665 10670 10674 10677 10681 10685 10690 10693 10697 10701 10703 10706 10709 10712 10716 10719 10722 10725 10727 10728 10730 10731
10678 10674 10670 10666 10662 10658 10653 10649 10644 10639 10634 10629 10624 10619 10614 10611 10608 10606 10603 10601 10599 10598 10596 10595 10593 10591 10588 10586 10584 10582 10580 10579 10577 10576 10575 10573 10572 10572 10571 10571 10571 10572 10573 10574 10575 10577 10580 10582 10584 10587 10590 10593 10597 10601 10604 10607 10611 10616 10621 10626 10632 10638 10643 10646 10650 10657 10663 10666 10670 10675 10679 10683 10686 10690 10694 10696 10699 10702 10706 10709 10713 10715 10718 10720 10722 10724 10725
10671 10667 10664 10659 10655 10651 10646 10642 10637 10632 10628 10623 10618 10613 10609 10606 10604 10601 10599 10597 10595 10593 10592 10590 10588 10586 10583 10581 10579 10577 10575 10573 10571 10570 10568 10566 10565 10564 10564 10564 10564 10565 10565 10567 10568 10570 10572 10575 10577 10581 10584 10587 10590 10593 10595 10598 10603 10608 10612 10618 10624 10630 10635 10638 10642 10648 10654 10659 10665 10669 10673 10676 10680 10684 10687 10690 10693 10696 10699 10703 10706 10709 10711 10714 10716 10718 10719
10664 10660 10656 10652 10648 10643 10639 10634 10630 10625 10622 10617 10613 10608 10605 10602 10599 10597 10595 10592 10590 10588 10587 10585 10583 10581 10579 10576 10574 10572 10570 10568 10566 10564 10562 10560 10558 10558 10557 10557 10557 10557 10558 10559 10561 10563 10565 10568 10571 10574 10577 10580 10583 10585 10587 10591 10595 10599 10604 10610 10617 10622 10627 10631 10635 10640 10647 10653 10659 10662 10665 10669 10674 10677 10680 10684 10686 10689 10693 10697 10699 10702 10704 10707 10710 10712 10713
10657 10653 10649 10645 10641 10636 10632 10628 10623 10619 10615 10612 10607 10603 10600 10597 10595 10592 10590 10588 10586 10584 10582 10580 10578 10576 10574 10571 10569 10567 10565 10562 10560 10558 10556 10554 10553 10552 10551 10551 10551 10551 10552 10553 10554 10556 10559 10561 10563 10566 10569 10572 10574 10576 10579 10583 10586 10590 10596 10603 10609 10614 10620 10625 10629 10634 10641 10647 10651 10654 10658 10662 10666 10670 10673 10677 10680 10683 10687 10690 10692 10695 10698 10700 10704 10706 10708
10649 10646 10642 10638 10634 10629 10625 10621 10616 10613 10609 10606 10602 10598 10595 10593 10590 10588 10586 10584 10582 10580 10578 10575 10573 10571 10569 10567 10564 10562 10560 10557 10555 10553 10551 10549 10548 10547 10547 10547 10547 10546 10547 10547 10548 10550 10552 10554 10556 10559 10562 10564 10566 10569 10572 10574 10578 10584 10591 10598 10603 10609 10615 10620 10624 10629 10635 10640 10643 10646 10650 10654 10658 10662 10666 10670 10674 10677 10680 10683 10686 10689 10692 10695 10698 10700 10702
10642 10638 10634 10630 10626 10622 10618 10614 10610 10606 10603 10600 10597 10594 10591 10588 10586 10584 10581 10580 10578 10576 10574 10571 10569 10567 10565 10562 10560 10557 10555 10552 10550 10548 10547 10545 10545 10544 10543 10543 10543 10542 10542 10543 10543 10544 10545 10547 10549 10552 10554 10556 10559 10562 10565 10569 10575 10582 10587 10593 10599 10605 10610 10614 10618 10623 10627 10632 10634 10636 10641 10646 10650 10654 10658 10663 10667 10670 10673 10677 10681 10684 10686 10689 10692 10694 10696
10634 10631 10627 10623 10619 10615 10611 10607 10603 10600 10597 10594 10591 10589 10586 10583 10581 10579 10577 10576 10574 10572 10570 10567 10565 10562 10560 10558 10556 10553 10551 10548 10546 10544 10543 10542 10542 10541 10541 10540 10540 10539 10539 10539 10539 10539 10540 10541 10543 10545 10547 10549 10552 10555 10559 10565 10571 10575 10579 10584 10591 10597 10602 10607 10611 10614 10617 10620 10623 10626 10632 10638 10642 10647 10651 10656 10660 10664 10667 10670 10674 10678 10681 10683 10685 10687 10690
10626 10622 10619 10615 10611 10608 10604 10600 10597 10594 10591 10588 10586 10584 10581 10579 10577 10575 10573 10571 10570 10568 10566 10563 10561 10558 10556 10554 10551 10549 10547 10544 10542 10541 10540 10540 10539 10539 10538 10537 10537 10536 10536 10536 10536 10536 10536 10537 10538 10539 10541 10543 10546 10550 10554 10559 10564 10568 10572 10578 10584 10589 10594 10598 10601 10604 10607 10610 10613 10619 10624 10630 10635 10641 10646 10650 10655 10659 10661 10664 10667 10672 10675 10677 10679 10681 10683
10618 10614 10611 10607 10603 10600 10596 10593 10590 10587 10585 10582 10580 10578 10576 10574 10572 10570 10569 10567 10565 10564 10562 10560 10557 10555 10552 10550 10548 10545 10543 10541 10539 10539 10538 10537 10537 10536 10536 10535 10535 10534 10533 10533 10532 10532 10532 10533 10533 10534 10536 10538 10541 10544 10548 10553 10557 10562 10567 10572 10577 10582 10586 10589 10593 10596 10599 10602 10608 10614 10620 10626 10632 10637 10642 10646 10650 10653 10656 10657 10661 10665 10668 10671 10673 10675 10677
10609 10606 10602 10598 10595 10591 10588 10585 10583 10580 10578 10576 10575 10573 10571 10569 10568 10566 10564 10563 10561 10560 10558 10556 10553 10551 10549 10547 10544 10542 10540 10538 10537 10536 10536 10535 10535 10534 10534 10533 10533 10532 10531 10530 10530 10529 10529 10529 10529 10530 10531 10533 10535 10538 10542 10546 10550 10556 10562 10567 10571 10575 10579 10583 10587 10591 10594 10599 10606 10613 10619 10625 10629 10633 10637 10641 10645 10647 10649 10651 10653 10657 10660 10663 10665 10668 10671
10600 10597 10593 10589 10586 10583 10580 10578 10575 10573 10571 10570 10568 10567 10566 10564 10563 10562 10560 10559 10557 10556 10554 10552 10550 10548 10546 10543 10541 10539 10537 10535 10535 10534 10534 10533 10533 10532 10532 10531 10531 10530 10529 10528 10527 10527 10526 10526 10526 10526 10527 10528 10531 10533 10537 10540 10545 10550 10556 10561 10566 10570 10574 10579 10584 10588 10594 10600 10606 10612 10618 10621 10624 10627 10631 10635 10637 10639 10641 10642 10645 10648 10652 10655 10658 10661 10664
10591 10588 10584 10580 10577 10574 10572 10569 10567 10566 10564 10563 10562 10561 10560 10559 10558 10557 10556 10554 10553 10552 10550 10548 10546 10544 10542 10540 10538 10536 10534 10533 10533 10533 10532 10532 10531 10531 10531 10530 10530 10529 10528 10527 10526 10525 10524 10524 10524 10524 10525 10526 10528 10530 10533 10537 10540 10545 10551 10557 10562 10567 10572 10577 10582 10587 10593 10599 10604 10609 10614 10617 10619 10622 10625 10627 10629 10631 10633 10635 10638 10641 10645 10648 10652 10655 10659
10582 10579 10575 10571 10568 10565 10563 10561 10559 10557 10556 10556 10555 10555 10555 10554 10553 10552 10552 10550 10549 10548 10546 10545 10543 10541 10539 10537 10535 10533 10532 10531 10531 10531 10531 10531 10530 10530 10530 10529 10529 10528 10527 10526 10524 10524 10523 10523 10523 10524 10524 10525 10527 10529 10531 10534 10538 10542 10548 10554 10560 10565 10570 10575 10580 10584 10589 10594 10599 10604 10608 10612 10614 10616 10618 10620 10622 10624 10626 10629 10632 10636 10639 10643 10647 10651 10655
10573 10570 10566 10563 10559 10556 10554 10552 10550 10549 10548 10548 10549 10549 10549 10549 10549 10548 10547 10546 10545 10544 10543 10541 10540 10538 10536 10534 10532 10531 10530 10529 10529 10529 10529 10529 10529 10529 10529 10529 10528 10528 10527 10526 10524 10523 10523 10523 10523 10524 10525 10525 10527 10529 10531 10533 10536 10541 10546 10552 10558 10563 10568 10572 10577 10581 10586 10591 10596 10600 10604 10608 10609 10611 10613 10615 10617 10619 10621 10624 10627 10631 10635 10638 10642 10647 10650
10565 10562 10558 10554 10551 10547 10545 10543 10541 10541 10541 10542 10543 10544 10544 10544 10544 10544 10543 10542 10541 10540 10539 10538 10536 10535 10533 10531 10530 10528 10528 10527 10527 10527 10527 10528 10528 10529 10529 10529 10529 10528 10527 10526 10525 10524 10524 10524 10524 10525 10525 10526 10527 10529 10531 10533 10536 10540 10544 10550 10556 10562 10566 10570 10575 10580 10585 10590 10594 10598 10602 10605 10606 10607 10609 10611 10613 10614 10617 10620 10623 10627 10631 10635 10639 10643 10646
10557 10554 10551 10547 10543 10540 10537 10536 10535 10535 10535 10536 10538 10539 10540 10540 10540 10540 10539 10538 10537 10537 10535 10534 10533 10532 10530 10529 10527 10526 10526 10526 10526 10526 10526 10527 10528 10528 10528 10529 10529 10528 10528 10527 10526 10526 10525 10525 10526 10526 10527 10528 10529 10531 10533 10535 10538 10541 10544 10548 10554 10560 10565 10569 10574 10579 10583 10588 10592 10597 10600 10602 10603 10604 10606 10608 10610 10611 10613 10616 10620 10623 10627 10632 10635 10637 10640
10551 10548 10544 10540 10537 10534 10532 10531 10530 10531 10532 10533 10534 10535 10536 10536 10536 10536 10536 10535 10534 10533 10532 10531 10530 10529 10528 10526 10525 10525 10524 10524 10524 10525 10525 10526 10527 10528 10528 10528 10528 10528 10528 10527 10527 10527 10527 10527 10527 10528 10529 10530 10531 10533 10536 10538 10541 10544 10546 10549 10553 10558 10563 10568 10572 10577 10581 10584 10589 10594 10597 10599 10599 10600 10602 10605 10608 10609 10611 10614 10618 10622 10626 10629 10631 10632 10634
10545 10542 10539 10535 10532 10530 10529 10528 10527 10528 10529 10530 10531 10532 10533 10533 10533 10533 10532 10531 10530 10530 10529 10528 10527 10526 10525 10524 10523 10522 10522 10522 10523 10523 10524 10525 10527 10528 10528 10528 10528 10528 10528 10528 10527 10527 10527 10527 10529 10530 10532 10533 10535 10537 10540 10542 10544 10547 10549 10551 10554 10558 10563 10567 10570 10574 10577 10580 10584 10588 10591 10593 10593 10595 10597 10600 10603 10605 10607 10611 10614 10619 10622 10624 10625 10627 10629
10540 10537 10534 10532 10530 10528 10527 10526 10526 10526 10527 10528 10529 10529 10530 10530 10529 10529 10529 10528 10527 10526 10526 10525 10524 10523 10522 10521 10520 10520 10520 10521 10521 10522 10523 10524 10526 10527 10528 10528 10528 10528 10529 10529 10528 10528 10528 10529 10530 10532 10534 10536 10539 10542 10545 10547 10548 10549 10551 10554 10556 10559 10562 10566 10568 10570 10573 10576 10580 10583 10586 10588 10589 10590 10592 10595 10597 10600 10603 10606 10610 10613 10616 10619 10621 10623 10626
10535 10533 10531 10529 10528 10526 10525 10524 10524 10524 10525 10526 10526 10526 10526 10526 10526 10526 10525 10524 10524 10523 10522 10522 10521 10521 10520 10519 10518 10518 10518 10519 10520 10521 10522 10523 10525 10526 10527 10527 10528 10528 10528 10529 10529 10529 10530 10531 10532 10534 10536 10538 10540 10543 10547 10549 10551 10552 10554 10556 10558 10560 10562 10564 10566 10568 10570 10574 10577 10580 10583 10585 10586 10586 10588 10590 10593 10595 10598 10601 10604 10608 10611 10614 10617 10620 10622
10531 10530 10528 10527 10525 10524 10523 10522 10522 10522 10523 10523 10523 10523 10523 10523 10523 10522 10521 10521 10521 10520 10519 10519 10518 10518 10517 10516 10516 10515 10516 10517 10518 10519 10521 10522 10524 10525 10526 10526 10527 10527 10528 10529 10530 10530 10531 10532 10534 10535 10537 10539 10541 10543 10546 10549 10552 10553 10555 10556 10558 10560 10561 10563 10565 10567 10570 10573 10575 10578 10580 10583 10584 10584 10585 10587 10589 10591 10593 10596 10599 10602 10605 10608 10611 10614 10617
10526 10525 10524 10523 10523 10521 10520 10520 10520 10520 10521 10520 10520 10520 10520 10520 10519 10519 10518 10518 10517 10517 10516 10516 10516 10515 10515 10514 10514 10513 10514 10515 10516 10517 10519 10521 10522 10523 10524 10525 10526 10527 10528 10529 10530 10531 10532 10533 10534 10536 10538 10539 10542 10544 10546 10549 10551 10553 10555 10557 10558 10560 10561 10562 10563 10565 10568 10571 10573 10575 10577 10579 10580 10581 10582 10584 10586 10588 10590 10592 10594 10597 10600 10602 10605 10608 10611
10522 10521 10521 10520 10519 10518 10517 10517 10517 10518 10518 10517 10517 10517 10516 10516 10516 10515 10515 10514 10514 10514 10513 10513 10513 10512 10512 10512 10511 10511 10512 10513 10514 10516 10518 10519 10520 10522 10523 10525 10526 10527 10528 10529 10530 10531 10532 10533 10535 10536 10538 10540 10542 10544 10547 10549 10551 10553 10555 10557 10558 10559 10560 10561 10562 10564 10566 10568 10570 10571 10572 10573 10575 10576 10579 10581 10583 10585 10587 10589 10591 10593 10595 10597 10599 10601 10604
10518 10517 10517 10516 10515 10515 10514 10514 10515 10515 10514 10514 10514 10513 10513 10512 10512 10512 10511 10511 10511 10510 10510 10510 10510 10510 10510 10509 10509 10509 10510 10511 10512 10514 10516 10518 10519 10521 10522 10524 10525 10526 10528 10529 10530 10531 10532 10534 10535 10537 10539 10541 10543 10545 10547 10549 10551 10553 10554 10556 10557 10558 10559 10560 10562 10563 10565 10567 10568 10569 10569 10570 10572 10573 10576 10578 10580 10581 10583 10585 10587 10589 10591 10593 10595 10597 10599